Location: Sawmill Trailhead
(33.5800°N, 116.4497°W)
Time: 17:04:34
(UTC-07:00)

Amateur Radio Satellites - All Passes

Search period start: 27 May 2016 16:34
Search period end: 28 May 2016 16:34
Location: Sawmill Trailhead, 33.5800°N, 116.4497°W

Satellite Date Start Highest point End Downlink Frequencies (MHz)
Time Altitude Azimuth
RS-15 27 May 16:47:06 16:57:53 58° 110° (ESE) 17:09:15 29.354- 29.394
YUBILEINY 27 May 17:04:56 17:13:23 56° 280° (W) 17:21:54 435.215
Cosmos 2491 27 May 17:11:53 17:18:26 24° 277° (W) 17:24:58 435.465 / 435.565
LilacSat-2 27 May 17:15:58 17:16:30 10° 68° (ENE) 17:17:01 437.200
KKS-1 27 May 17:19:52 17:23:30 25° 290° (WNW) 17:27:07 437.445
NOAA 15 27 May 17:21:36 17:26:16 33° 70° (ENE) 17:30:58 137.62
CUBESAT XI-V 27 May 17:23:20 17:27:06 24° 95° (E) 17:30:51 437.345
AO-7 27 May 17:24:36 17:30:08 19° 265° (W) 17:35:44 29.400- 29.500
NOAA 18 27 May 17:24:45 17:29:27 30° 69° (ENE) 17:34:09 137.9125
Cubesat XI-IV 27 May 17:26:57 17:31:09 24° 68° (ENE) 17:35:22 437.490
MOZHAYETS 4 27 May 17:35:09 17:38:53 25° 290° (WNW) 17:42:38
HORYU 2 27 May 17:40:43 17:44:15 23° 263° (W) 17:47:48 437.375
BRITE-PL 27 May 17:55:17 18:00:42 54° 74° (ENE) 18:06:16 437.365/2234.400
STARS 27 May 17:55:56 17:59:06 20° 291° (WNW) 18:02:16 437.465
Cosmos 2504 27 May 18:06:25 18:13:34 75° 277° (W) 18:21:05 435.465 / 435.565
CUTE-I 27 May 18:11:57 18:17:12 69° 75° (ENE) 18:22:29 437.470
GOMX 1 27 May 18:20:10 18:25:22 45° 73° (ENE) 18:30:30 467.674
M-CUBED/EXP-1 PRIME 27 May 18:34:17 18:35:56 12° 64° (ENE) 18:37:33 437.505
STRAND 1 27 May 18:44:10 18:46:05 12° 92° (E) 18:47:59 437.568
HO-68 27 May 18:46:36 18:51:41 21° 62° (ENE) 18:56:46 435.675
LilacSat-2 27 May 18:46:45 18:50:22 42° 261° (W) 18:54:00 437.200
O/OREOS (USA 219) 27 May 18:59:47 19:03:26 24° 63° (ENE) 19:07:05 437.305
RS-15 27 May 19:00:18 19:10:42 40° 312° (NW) 19:21:42 29.354- 29.394
CUBESAT XI-V 27 May 19:00:25 19:04:24 28° 289° (WNW) 19:08:22 437.345
PCSat 27 May 19:01:23 19:06:40 49° 61° (ENE) 19:11:53 145.827
NOAA 15 27 May 19:01:40 19:06:00 25° 264° (W) 19:10:21 137.62
NOAA 18 27 May 19:05:20 19:10:00 29° 263° (W) 19:14:41 137.9125
Cubesat XI-IV 27 May 19:06:12 19:10:59 34° 262° (W) 19:15:48 437.490
DOVE 4 27 May 19:08:45 19:13:58 66° 76° (ENE) 19:19:01 437.250
BRITE-PL 27 May 19:35:47 19:39:24 17° 268° (W) 19:43:05 437.365/2234.400
CANX-2 27 May 19:36:29 19:40:18 35° 73° (ENE) 19:44:08 2200.000
CINEMA 3 27 May 19:39:31 19:43:59 39° 73° (ENE) 19:48:15 145.822/145.860
SEEDS 27 May 19:39:33 19:42:51 23° 71° (ENE) 19:46:09 437.485
CUTE-I 27 May 19:56:08 19:57:40 11° 268° (W) 19:59:11 437.470
AUBIESAT-1 27 May 19:59:07 20:03:21 73° 254° (WSW) 20:07:17 437.475
GOMX 1 27 May 19:59:36 20:03:31 20° 266° (W) 20:07:26 467.674
BEESAT 2 27 May 20:02:11 20:04:01 13° 50° (NE) 20:05:49 435.950
CUTE 1.7 + AOD 2 27 May 20:03:19 20:07:28 66° 76° (ENE) 20:11:39 437.475
M-CUBED/EXP-1 PRIME 27 May 20:06:00 20:10:10 47° 255° (WSW) 20:14:03 437.505
Oscar 11 27 May 20:10:46 20:12:12 11° 66° (ENE) 20:13:38 145.826/435.025
STRAND 1 27 May 20:20:30 20:25:35 63° 286° (WNW) 20:30:40 437.568
ZACube-1 27 May 20:24:18 20:26:38 15° 69° (ENE) 20:28:58 437.345
COMPASS 1 27 May 20:24:32 20:28:35 58° 75° (ENE) 20:32:40 437.405
AAUSAT CUBESAT 2 27 May 20:27:01 20:30:59 48° 75° (ENE) 20:34:58 437.432
PHONESAT 2.4 27 May 20:27:09 20:29:08 16° 143° (SE) 20:31:08 2401.200-2431.200
CUBEBUG 2 27 May 20:28:28 20:32:35 39° 74° (ENE) 20:36:35 437.445
AIST 1 27 May 20:30:44 20:34:10 23° 89° (E) 20:37:38
HO-68 27 May 20:31:42 20:38:45 64° 257° (WSW) 20:45:51 435.675
PRISM 27 May 20:35:00 20:38:40 29° 98° (E) 20:42:17 437.425
BEESAT 3 27 May 20:35:04 20:38:55 51° 60° (ENE) 20:42:44 437.485
O/OREOS (USA 219) 27 May 20:39:07 20:42:43 24° 258° (WSW) 20:46:17 437.305
ISS 27 May 20:42:04 20:45:17 60° 134° (SE) 20:48:29 145.825
PCSat 27 May 20:46:04 20:49:35 18° 255° (WSW) 20:53:06 145.827
DOVE 4 27 May 20:50:00 20:51:55 12° 268° (W) 20:53:48 437.250
Cosmos 2499 27 May 20:54:30 20:55:35 10° 77° (ENE) 20:56:41 435.465 / 435.565
UWE-3 27 May 20:56:33 21:00:48 57° 76° (ENE) 21:04:57 435.000/436.395/437.385
DELFI C3 27 May 20:57:11 20:59:47 17° 70° (ENE) 21:02:23 145.870
GONETS M04 27 May 20:59:54 21:07:20 32° 85° (E) 21:14:43
FUNcube-1 27 May 21:00:32 21:04:27 37° 73° (ENE) 21:08:18 145.935
CANX-2 27 May 21:13:52 21:16:14 15° 267° (W) 21:18:36 2200.000
SEEDS 27 May 21:15:11 21:18:25 22° 264° (W) 21:21:42 437.485
CINEMA 3 27 May 21:18:05 21:21:09 17° 265° (W) 21:24:08 145.822/145.860
RS-15 27 May 21:22:53 21:28:08 13° 344° (NNW) 21:33:28 29.354- 29.394
BEESAT 2 27 May 21:38:15 21:42:06 48° 245° (WSW) 21:45:55 435.950
Oscar 11 27 May 21:43:42 21:47:51 50° 260° (W) 21:52:02 145.826/435.025
DANDE 27 May 21:44:06 21:46:43 12° 61° (ENE) 21:49:15 436.750
CUSAT 1 27 May 21:46:37 21:52:10 22° 67° (ENE) 21:57:00 437.405
ZACube-1 27 May 21:58:39 22:02:36 37° 261° (W) 22:06:30 437.345
PHONESAT 2.4 27 May 22:02:29 22:05:37 73° 336° (NNW) 22:08:44 2401.200-2431.200
HUMSAT D 27 May 22:04:44 22:08:42 50° 75° (ENE) 22:12:39 437.325/437.525
AAUSAT CUBESAT 2 27 May 22:06:25 22:06:41 10° 268° (W) 22:06:57 437.432
CUBEBUG 2 27 May 22:06:57 22:09:18 14° 266° (W) 22:11:36 437.445
AIST 1 27 May 22:08:08 22:11:38 23° 283° (WNW) 22:15:08
PRISM 27 May 22:10:53 22:13:43 18° 291° (WNW) 22:16:31 437.425
AIST 2 27 May 22:12:18 22:15:22 20° 53° (NE) 22:18:26 435.215
ANTELSAT 27 May 22:19:11 22:22:30 21° 96° (E) 22:25:52 437.575/2403.000
ISS 27 May 22:20:11 22:21:59 14° 330° (NNW) 22:23:47 145.825
DELFI C3 27 May 22:31:02 22:34:24 27° 263° (W) 22:37:49 145.870
FUNcube-1 27 May 22:38:35 22:40:46 14° 266° (W) 22:42:56 145.935
Cosmos 2499 27 May 22:40:06 22:47:15 86° 97° (E) 22:54:56 435.465 / 435.565
AISAT 27 May 22:46:42 22:49:53 19° 69° (ENE) 22:53:05 437.250
UKube-1 27 May 22:54:05 22:56:27 14° 67° (ENE) 22:58:47 .
GONETS M04 27 May 22:55:22 23:03:44 47° 282° (WNW) 23:12:07
50 SAT 27 May 23:05:24 23:08:32 28° 73° (ENE) 23:11:42 437.505
UNISAT 6 27 May 23:13:43 23:18:03 81° 282° (WNW) 23:22:25 437.425
NANOSAT C BR1 27 May 23:15:13 23:17:24 14° 94° (E) 23:19:34 145.865
TIGRISAT 27 May 23:21:12 23:25:29 70° 285° (WNW) 23:29:50 435.000
DANDE 27 May 23:22:48 23:31:12 68° 80° (E) 23:38:27 436.750
ESTCUBE 1 27 May 23:24:36 23:29:05 78° 76° (ENE) 23:33:37 437.505/2401.250
CUSAT 1 27 May 23:27:34 23:34:55 59° 268° (W) 23:40:52 437.405
CUBEBUG 1 27 May 23:37:39 23:42:05 74° 76° (ENE) 23:46:31 437.445
DX 1 27 May 23:39:05 23:43:25 63° 75° (ENE) 23:47:45 434.975-435.025
PHONESAT 2.4 27 May 23:40:01 23:42:40 24° 352° (N) 23:45:18 2401.200-2431.200
RS-15 27 May 23:41:48 23:48:31 16° 23° (NNE) 23:55:16 29.354- 29.394
VELOX 1 27 May 23:45:24 23:49:52 89° 71° (ENE) 23:54:21 145.980
AIST 2 27 May 23:50:13 23:53:52 30° 248° (WSW) 23:57:30 435.215
DUCHIFAT 1 27 May 23:52:11 23:56:04 37° 99° (E) 23:59:57 145.980
ANTELSAT 27 May 23:55:34 23:59:08 26° 289° (WNW) 00:02:46 437.575/2403.000
SPROUT 28 May 00:03:27 00:07:37 51° 75° (ENE) 00:11:48 437.525
BUGSAT 1 28 May 00:09:26 00:12:48 25° 97° (E) 00:16:07 437.445
SO-50 28 May 00:20:16 00:25:09 81° 299° (WNW) 00:30:06 436.795
AISAT 28 May 00:22:08 00:26:07 31° 262° (W) 00:30:06 437.250
JAS-2 28 May 00:22:24 00:27:12 19° 90° (E) 00:31:39 435.910
TISAT 1 28 May 00:27:10 00:30:36 24° 71° (ENE) 00:34:02 437.305
UKube-1 28 May 00:28:01 00:32:06 40° 261° (W) 00:36:12 .
POPSAT HIP 1 28 May 00:30:32 00:34:40 61° 285° (WNW) 00:38:48 437.405
QB50P1 28 May 00:30:54 00:35:02 59° 285° (WNW) 00:39:10 145.935-145.965
QB50P2 28 May 00:33:23 00:37:28 52° 285° (WNW) 00:41:32 145.880/145.840
POLYITAN 1 28 May 00:35:50 00:39:55 50° 285° (WNW) 00:43:58 437.675
Cosmos 2499 28 May 00:38:16 00:41:27 13° 294° (WNW) 00:44:45 435.465 / 435.565
50 SAT 28 May 00:40:37 00:42:17 13° 266° (W) 00:43:59 437.505
NANOSAT C BR1 28 May 00:49:23 00:53:14 36° 287° (WNW) 00:57:04 145.865
Oscar 19 28 May 00:55:45 00:57:39 12° 92° (E) 00:59:33 437.125/150
DANDE 28 May 01:07:12 01:13:07 22° 278° (W) 01:18:33 436.750
PHONESAT 2.4 28 May 01:17:17 01:19:58 25° 9° (N) 01:22:38 2401.200-2431.200
SWISSCUBE 28 May 01:19:31 01:22:58 20° 68° (ENE) 01:26:25 437.505
ITUPSAT 1 28 May 01:25:49 01:29:20 21° 68° (ENE) 01:32:51 437.325
DUCHIFAT 1 28 May 01:29:13 01:31:24 14° 292° (WNW) 01:33:36 145.980
SPROUT 28 May 01:43:15 01:43:48 10° 268° (W) 01:44:23 437.525
BUGSAT 1 28 May 01:45:09 01:47:58 19° 291° (WNW) 01:50:47 437.445
BEESAT 28 May 01:48:09 01:52:30 37° 72° (ENE) 01:56:51 436.000
RS-15 28 May 01:53:21 02:05:12 49° 52° (NE) 02:16:54 29.354- 29.394
TISAT 1 28 May 02:02:53 02:06:09 22° 264° (W) 02:09:26 437.305
JAS-2 28 May 02:05:35 02:12:49 64° 287° (WNW) 02:19:13 435.910
SO-50 28 May 02:05:44 02:06:22 10° 316° (NW) 02:07:01 436.795
Cosmos 2491 28 May 02:20:27 02:22:39 11° 77° (ENE) 02:24:50 435.465 / 435.565
Oscar 19 28 May 02:32:14 02:37:20 62° 286° (WNW) 02:42:22 437.125/150
KKS-1 28 May 02:38:57 02:41:14 14° 66° (ENE) 02:43:30 437.445
PHONESAT 2.4 28 May 02:53:51 02:56:59 81° 24° (NNE) 03:00:06 2401.200-2431.200
SWISSCUBE 28 May 02:56:13 03:00:30 34° 262° (W) 03:04:49 437.505
MOZHAYETS 4 28 May 02:57:01 02:59:46 16° 68° (ENE) 03:02:32
Gurwin Techsat 1B 28 May 02:58:17 03:03:38 88° 277° (W) 03:08:57 435.225
ITUPSAT 1 28 May 03:02:39 03:06:54 33° 262° (W) 03:11:12 437.325
STARS 28 May 03:12:52 03:15:37 17° 68° (ENE) 03:18:23 437.465
ISS 28 May 03:13:55 03:15:42 14° 30° (NNE) 03:17:28 145.825
ITAMSAT 1 28 May 03:14:44 03:19:47 48° 100° (E) 03:24:49 435.822/435.867
YUBILEINY 28 May 03:19:44 03:28:25 62° 81° (E) 03:37:05 435.215
BEESAT 28 May 03:27:08 03:30:20 18° 265° (W) 03:33:34 436.000
AO-7 28 May 03:35:25 03:42:37 31° 98° (E) 03:49:45 29.400- 29.500
Cosmos 2504 28 May 04:02:49 04:10:22 33° 76° (ENE) 04:18:06 435.465 / 435.565
RS-15 28 May 04:06:08 04:17:36 48° 252° (WSW) 04:28:58 29.354- 29.394
Cosmos 2491 28 May 04:09:07 04:17:55 78° 94° (E) 04:26:45 435.465 / 435.565
KKS-1 28 May 04:13:05 04:17:22 45° 260° (W) 04:21:40 437.445
CUBESAT XI-V 28 May 04:23:44 04:26:26 15° 67° (ENE) 04:29:07 437.345
PHONESAT 2.4 28 May 04:31:43 04:33:24 14° 218° (SW) 04:35:05 2401.200-2431.200
MOZHAYETS 4 28 May 04:32:19 04:36:34 40° 261° (W) 04:40:52
STARS 28 May 04:47:35 04:51:39 36° 261° (W) 04:55:44 437.465
ISS 28 May 04:49:12 04:52:24 61° 226° (SW) 04:55:36 145.825
ITAMSAT 1 28 May 04:55:27 04:58:48 18° 294° (WNW) 05:02:11 435.822/435.867
JUGNU 28 May 05:06:42 05:09:30 13° 166° (SSE) 05:12:19 437.505
YUBILEINY 28 May 05:18:00 05:24:26 24° 277° (W) 05:30:54 435.215
AO-7 28 May 05:27:32 05:35:30 51° 293° (WNW) 05:43:28 29.400- 29.500
HORYU 2 28 May 05:34:27 05:38:53 88° 101° (ESE) 05:43:20 437.375
NOAA 15 28 May 05:41:44 05:45:04 17° 94° (E) 05:48:22 137.62
AO-85 28 May 05:45:47 05:51:14 85° 117° (ESE) 05:56:39 145.980
Cubesat XI-IV 28 May 05:49:24 05:51:48 13° 93° (E) 05:54:10 437.490
NOAA 18 28 May 05:51:27 05:55:03 18° 95° (E) 05:58:38 137.9125
Cosmos 2504 28 May 05:55:45 06:03:47 47° 271° (W) 06:12:06 435.465 / 435.565
STRAND 1 28 May 05:56:45 05:58:44 12° 64° (ENE) 06:00:45 437.568
CUBESAT XI-V 28 May 05:58:57 06:03:23 44° 261° (W) 06:07:52 437.345
BRITE-PL 28 May 06:05:57 06:09:45 22° 93° (E) 06:13:18 437.365/2234.400
Cosmos 2491 28 May 06:09:52 06:15:36 19° 291° (WNW) 06:21:24 435.465 / 435.565
LilacSat-2 28 May 06:24:19 06:27:27 24° 97° (E) 06:30:35 437.200
GOMX 1 28 May 06:28:19 06:30:53 15° 92° (E) 06:33:21 467.674
CUTE-I 28 May 06:33:17 06:38:16 38° 99° (E) 06:43:14 437.470
JUGNU 28 May 06:53:33 06:57:51 20° 175° (S) 07:02:09 437.505
SRMSAT 28 May 07:01:55 07:04:06 12° 164° (SSE) 07:06:17 437.500
DOVE 4 28 May 07:13:14 07:16:27 20° 95° (E) 07:19:35 437.250
GONETS M04 28 May 07:18:42 07:20:29 11° 63° (ENE) 07:22:15
NOAA 15 28 May 07:19:57 07:25:02 48° 288° (WNW) 07:30:05 137.62
PRISM 28 May 07:22:06 07:24:04 13° 67° (ENE) 07:26:03 437.425
Cubesat XI-IV 28 May 07:26:54 07:32:12 63° 286° (WNW) 07:37:29 437.490
AO-85 28 May 07:29:33 07:32:21 14° 313° (NW) 07:35:08 145.980
NOAA 18 28 May 07:30:38 07:35:54 49° 288° (WNW) 07:41:10 137.9125
STRAND 1 28 May 07:32:14 07:37:17 67° 258° (WSW) 07:42:22 437.568
CINEMA 3 28 May 07:41:09 07:41:45 10° 92° (E) 07:42:21 145.822/145.860
BRITE-PL 28 May 07:43:53 07:48:14 30° 290° (WNW) 07:52:18 437.365/2234.400
M-CUBED/EXP-1 PRIME 28 May 07:51:19 07:52:14 11° 100° (E) 07:53:08 437.505
CUTE 1.7 + AOD 2 28 May 07:53:28 07:56:05 16° 94° (E) 07:58:40 437.475
LilacSat-2 28 May 07:59:05 08:01:33 17° 290° (WNW) 08:04:01 437.200
PCSat 28 May 08:00:37 08:01:22 10° 102° (ESE) 08:02:07 145.827
HO-68 28 May 08:04:15 08:10:30 32° 97° (E) 08:16:43 435.675
GOMX 1 28 May 08:04:57 08:09:10 37° 288° (WNW) 08:13:09 467.674
COMPASS 1 28 May 08:13:10 08:15:04 13° 93° (E) 08:16:58 437.405
CUTE-I 28 May 08:13:57 08:18:01 23° 293° (WNW) 08:22:05 437.470
AAUSAT CUBESAT 2 28 May 08:16:16 08:16:50 10° 92° (E) 08:17:24 437.432
AIST 1 28 May 08:18:18 08:22:35 56° 82° (E) 08:26:48
CUBEBUG 2 28 May 08:26:09 08:26:33 10° 93° (E) 08:26:58 437.445
Cosmos 2499 28 May 08:35:45 08:42:48 27° 73° (ENE) 08:49:54 435.465 / 435.565
JUGNU 28 May 08:41:58 08:46:14 20° 186° (S) 08:50:30 437.505
SRMSAT 28 May 08:48:24 08:52:35 20° 174° (S) 08:56:45 437.500
DOVE 4 28 May 08:50:37 08:54:07 24° 290° (WNW) 08:57:30 437.250
UWE-3 28 May 08:51:19 08:53:45 15° 94° (E) 08:56:12 435.000/436.395/437.385
PRISM 28 May 08:55:05 08:58:58 40° 261° (W) 09:02:55 437.425
SO-50 28 May 08:56:11 09:00:18 30° 54° (NE) 09:04:16 436.795
CANX-2 28 May 09:00:40 09:04:55 64° 284° (WNW) 09:09:10 2200.000
SEEDS 28 May 09:01:50 09:06:07 79° 103° (ESE) 09:10:22 437.485
O/OREOS (USA 219) 28 May 09:07:10 09:11:40 61° 107° (ESE) 09:16:10 437.305
GONETS M04 28 May 09:10:07 09:18:49 73° 83° (E) 09:27:28
CINEMA 3 28 May 09:15:10 09:19:08 45° 285° (WNW) 09:23:05 145.822/145.860
ANTELSAT 28 May 09:15:58 09:17:40 12° 67° (ENE) 09:19:22 437.575/2403.000
AUBIESAT-1 28 May 09:16:22 09:19:32 43° 290° (WNW) 09:22:43 437.475
M-CUBED/EXP-1 PRIME 28 May 09:24:05 09:26:51 26° 292° (WNW) 09:29:38 437.505
CUTE 1.7 + AOD 2 28 May 09:28:05 09:31:58 34° 287° (WNW) 09:35:51 437.475
Oscar 11 28 May 09:34:50 09:38:53 38° 98° (E) 09:42:56 145.826/435.025
PCSat 28 May 09:38:36 09:44:00 78° 296° (WNW) 09:49:27 145.827
COMPASS 1 28 May 09:46:48 09:50:46 40° 286° (WNW) 09:54:43 437.405
AAUSAT CUBESAT 2 28 May 09:48:28 09:52:32 49° 285° (WNW) 09:56:35 437.432
ZACube-1 28 May 09:50:22 09:54:29 52° 100° (E) 09:58:40 437.345
HO-68 28 May 09:51:35 09:58:12 42° 292° (WNW) 10:04:49 435.675
HUMSAT D 28 May 09:54:19 09:55:34 11° 93° (E) 09:56:50 437.325/437.525
CUBEBUG 2 28 May 09:59:22 10:03:23 49° 285° (WNW) 10:07:29 437.445
UNISAT 6 28 May 10:08:29 10:12:44 52° 75° (ENE) 10:16:56 437.425
DELFI C3 28 May 10:11:59 10:15:54 47° 99° (E) 10:19:47 145.870
TIGRISAT 28 May 10:15:41 10:20:00 60° 76° (ENE) 10:24:15 435.000
BEESAT 3 28 May 10:22:33 10:25:40 23° 111° (ESE) 10:28:47 437.485
UWE-3 28 May 10:26:28 10:30:16 34° 287° (WNW) 10:34:08 435.000/436.395/437.385
Cosmos 2499 28 May 10:27:46 10:36:16 60° 269° (W) 10:44:55 435.465 / 435.565
FUNcube-1 28 May 10:28:02 10:32:09 55° 284° (WNW) 10:36:20 145.935
JUGNU 28 May 10:32:00 10:34:34 13° 195° (SSW) 10:37:08 437.505
SRMSAT 28 May 10:36:48 10:41:06 21° 184° (S) 10:45:25 437.500
SO-50 28 May 10:36:55 10:40:35 24° 250° (WSW) 10:44:09 436.795
DUCHIFAT 1 28 May 10:41:05 10:43:53 17° 69° (ENE) 10:46:40 145.980
CUSAT 1 28 May 10:42:52 10:47:46 25° 83° (E) 10:53:26 437.405
ANTELSAT 28 May 10:49:43 10:53:57 48° 260° (W) 10:58:08 437.575/2403.000
O/OREOS (USA 219) 28 May 10:50:03 10:51:27 11° 302° (WNW) 10:52:51 437.305
BUGSAT 1 28 May 10:57:06 10:58:37 12° 67° (ENE) 11:00:09 437.445
GONETS M04 28 May 11:09:05 11:14:37 19° 279° (W) 11:20:10
Oscar 11 28 May 11:12:09 11:14:40 15° 292° (WNW) 11:17:11 145.826/435.025
POPSAT HIP 1 28 May 11:18:41 11:22:50 55° 75° (ENE) 11:26:58 437.405
QB50P1 28 May 11:18:59 11:23:08 57° 75° (ENE) 11:27:18 145.935-145.965
QB50P2 28 May 11:21:33 11:25:45 66° 76° (ENE) 11:29:57 145.880/145.840
ESTCUBE 1 28 May 11:21:51 11:25:24 22° 96° (E) 11:28:55 437.505/2401.250
POLYITAN 1 28 May 11:24:01 11:28:13 68° 77° (ENE) 11:32:25 437.675
BEESAT 2 28 May 11:26:04 11:30:01 76° 117° (ESE) 11:33:59 435.950
HUMSAT D 28 May 11:27:22 11:31:22 45° 285° (WNW) 11:35:23 437.325/437.525
PCSat 28 May 11:27:30 11:28:15 10° 314° (NW) 11:29:00 145.827
ZACube-1 28 May 11:29:20 11:30:19 11° 293° (WNW) 11:31:18 437.345
CUBEBUG 1 28 May 11:31:24 11:34:24 18° 95° (E) 11:37:25 437.445
DX 1 28 May 11:32:48 11:35:14 15° 94° (E) 11:37:40 434.975-435.025
NANOSAT C BR1 28 May 11:36:49 11:41:04 89° 268° (W) 11:45:18 145.865
VELOX 1 28 May 11:40:17 11:43:46 23° 96° (E) 11:47:14 145.980
UNISAT 6 28 May 11:49:03 11:49:40 10° 267° (W) 11:50:18 437.425
DELFI C3 28 May 11:49:22 11:50:17 11° 293° (WNW) 11:51:14 145.870
SPROUT 28 May 11:55:34 11:57:09 12° 93° (E) 11:58:45 437.525
BEESAT 3 28 May 12:00:04 12:03:14 23° 306° (NW) 12:06:25 437.485
Oscar 19 28 May 12:08:57 12:11:15 13° 64° (ENE) 12:13:33 437.125/150
JAS-2 28 May 12:11:17 12:18:00 42° 68° (ENE) 12:25:12 435.910
50 SAT 28 May 12:11:36 12:15:19 68° 101° (E) 12:19:01 437.505
DUCHIFAT 1 28 May 12:15:34 12:19:18 31° 262° (W) 12:23:03 145.980
AISAT 28 May 12:15:46 12:20:09 65° 101° (ESE) 12:24:30 437.250
UKube-1 28 May 12:18:56 12:23:03 42° 100° (E) 12:27:07 .
CUSAT 1 28 May 12:23:19 12:29:12 49° 284° (WNW) 12:36:29 437.405
DANDE 28 May 12:25:54 12:31:02 85° 96° (E) 12:37:58 436.750
SRMSAT 28 May 12:26:36 12:29:36 14° 194° (SSW) 12:32:36 437.500
BUGSAT 1 28 May 12:29:30 12:33:34 47° 260° (W) 12:37:36 437.445
Gurwin Techsat 1B 28 May 12:40:37 12:41:23 10° 62° (ENE) 12:42:09 435.225
ESTCUBE 1 28 May 12:58:17 13:02:07 28° 289° (WNW) 13:05:57 437.505/2401.250
CUBEBUG 1 28 May 13:06:53 13:10:42 30° 288° (WNW) 13:14:29 437.445
DX 1 28 May 13:07:30 13:11:32 37° 288° (WNW) 13:15:31 434.975-435.025
VELOX 1 28 May 13:16:31 13:20:08 25° 290° (WNW) 13:23:45 145.980
SPROUT 28 May 13:29:15 13:33:17 44° 286° (WNW) 13:37:18 437.525
AIST 2 28 May 13:43:19 13:47:21 55° 300° (WNW) 13:51:25 435.215
Oscar 19 28 May 13:44:48 13:49:57 65° 259° (WSW) 13:55:08 437.125/150
TISAT 1 28 May 13:49:38 13:53:49 77° 103° (ESE) 13:57:57 437.305
BEESAT 28 May 13:53:56 13:56:07 13° 93° (E) 13:58:18 436.000
JAS-2 28 May 13:56:29 14:02:56 35° 265° (W) 14:09:54 435.910
UKube-1 28 May 13:56:30 13:58:41 14° 293° (WNW) 14:00:51 .
DANDE 28 May 14:13:05 14:15:17 12° 300° (WNW) 14:17:39 436.750
Gurwin Techsat 1B 28 May 14:15:15 14:20:34 83° 257° (WSW) 14:25:54 435.225
AO-85 28 May 14:22:57 14:26:38 23° 52° (NE) 14:30:05 145.980
Cosmos 2491 28 May 14:25:22 14:32:55 31° 74° (ENE) 14:40:21 435.465 / 435.565
YUBILEINY 28 May 14:26:04 14:28:31 11° 77° (ENE) 14:30:59 435.215
ITAMSAT 1 28 May 14:28:44 14:33:41 49° 72° (ENE) 14:38:39 435.822/435.867
AO-7 28 May 14:30:28 14:37:25 31° 61° (ENE) 14:44:23 29.400- 29.500
SWISSCUBE 28 May 14:59:45 15:04:34 83° 101° (ESE) 15:09:22 437.505
ITUPSAT 1 28 May 15:06:27 15:11:18 86° 105° (ESE) 15:16:06 437.325
BEESAT 28 May 15:29:30 15:34:08 51° 286° (WNW) 15:38:46 436.000
AO-85 28 May 16:03:18 16:07:02 27° 250° (WSW) 16:10:32 145.980
KKS-1 28 May 16:07:53 16:12:08 44° 100° (E) 16:16:21 437.445
ITAMSAT 1 28 May 16:10:18 16:13:21 16° 266° (W) 16:16:26 435.822/435.867
YUBILEINY 28 May 16:15:09 16:23:49 81° 94° (E) 16:32:32 435.215
